Oriana — ZCDU9 — position and weather

sailwx.info

Track history (hours):
 
Tides and Currents Weather Stations Pressure Air Temp Water Temp Dewpoint Dewpoint Depression Visibility Wind Speed Wind Dir Waves Ship Positions

Oriana (Bermuda)

Last reported at 2017-Mar-29 10:27 UTC. Time now 2017-Mar-29 13:18 UTC.
Position N 18°00' W 063°03'.

Length 261 m; beam 32.2 m; draft 8.2 m.

Type: Ship. MMSI: 310529000.

Date/timePositionNaut miles runAvg speedWind from/ knotsBaromVisibWave heightAir tempDewpointWater temp
2017-Mar-29 10:27N 18°00' W 063°03'1111.3
2017-Mar-29 09:30N 17°50' W 063°06'32 1.2
2017-Mar-28 06:31N 17°43' W 062°34'1211.9
2017-Mar-28 05:33N 17°51' W 062°25'1212.3
2017-Mar-28 04:33N 17°59' W 062°15'18916.3
2017-Mar-27 17:00N 20°00' W 059°42'42517.7 120 / 301014.510.8 26.021.526.0
2017-Mar-26 17:00N 24°30' W 053°48'4120.3 090 / 201020.410.8 24.020.223.0
2017-Mar-26 15:00N 24°54' W 053°12'   080 / 221022.710.8 23.017.423.0
2017-Mar-24 01:06N 36°04' W 033°22'1220.4
2017-Mar-24 00:29N 36°10' W 033°08'8220.3
2017-Mar-23 20:25N 36°48' W 031°37'2620.0
2017-Mar-23 19:06N 36°59' W 031°08'1620.3
2017-Mar-23 18:19N 37°06' W 030°50'4020.2
2017-Mar-23 16:22N 37°24' W 030°05'1620.1
2017-Mar-23 15:33N 37°31' W 029°47'1323.6
2017-Mar-23 15:00N 37°30' W 029°30'1023.5 1034.410.8 16.0 9.315.0
2017-Mar-23 14:33N 37°39' W 029°23'2020.3
2017-Mar-23 13:33N 37°47' W 028°60'2019.8
2017-Mar-23 12:33N 37°56' W 028°38'2020.0
2017-Mar-23 11:33N 38°05' W 028°15'2119.9
2017-Mar-23 10:32N 38°13' W 027°51'1919.7
2017-Mar-23 09:33N 38°21' W 027°28'2019.9
2017-Mar-23 08:33N 38°32' W 027°07'11 5.6
2017-Mar-23 06:32N 38°43' W 027°03'0 0.0
2017-Mar-23 04:33N 38°43' W 027°03'0 0.0
2017-Mar-23 01:28N 38°43' W 027°03'0 0.0
2017-Mar-22 22:31N 38°43' W 027°03'0 0.0
2017-Mar-22 21:31N 38°43' W 027°03'0 0.0
2017-Mar-22 20:25N 38°43' W 027°03'0 0.0
2017-Mar-22 19:25N 38°43' W 027°03'0 0.0
2017-Mar-22 17:28N 38°43' W 027°03'0 0.0
2017-Mar-22 16:31N 38°43' W 027°03'0 0.0
2017-Mar-22 15:28N 38°43' W 027°03'0 0.0
2017-Mar-22 10:22N 38°43' W 027°03'0 0.0
2017-Mar-22 09:32N 38°43' W 027°03'2210.3
2017-Mar-22 07:26N 38°54' W 026°39'  
2017-Mar-19 17:18N 48°34' W 007°25'1114.6
2017-Mar-19 16:32N 48°39' W 007°10'1815.2
2017-Mar-19 15:22N 48°48' W 006°47'2216.9
2017-Mar-19 14:05N 48°58' W 006°17'  
Track history (hours):
 
Tides and Currents Weather Stations Pressure Air Temp Water Temp Dewpoint Dewpoint Depression Visibility Wind Speed Wind Dir Waves Ship Positions

Oriana (Bermuda)

Last reported at 2017-Mar-29 10:27 UTC. Time now 2017-Mar-29 13:18 UTC.
Position N 18°00' W 063°03'.

Length 261 m; beam 32.2 m; draft 8.2 m.

Type: Ship. MMSI: 310529000.

Date/timePositionNaut miles runAvg speedWind from/ knotsBaromVisibWave heightAir tempDewpointWater temp
2017-Mar-29 10:27N 18°00' W 063°03'1111.3
2017-Mar-29 09:30N 17°50' W 063°06'32 1.2
2017-Mar-28 06:31N 17°43' W 062°34'1211.9
2017-Mar-28 05:33N 17°51' W 062°25'1212.3
2017-Mar-28 04:33N 17°59' W 062°15'18916.3
2017-Mar-27 17:00N 20°00' W 059°42'42517.7 120 / 301014.510.8 26.021.526.0
2017-Mar-26 17:00N 24°30' W 053°48'4120.3 090 / 201020.410.8 24.020.223.0
2017-Mar-26 15:00N 24°54' W 053°12'   080 / 221022.710.8 23.017.423.0
2017-Mar-24 01:06N 36°04' W 033°22'1220.4
2017-Mar-24 00:29N 36°10' W 033°08'8220.3
2017-Mar-23 20:25N 36°48' W 031°37'2620.0
2017-Mar-23 19:06N 36°59' W 031°08'1620.3
2017-Mar-23 18:19N 37°06' W 030°50'4020.2
2017-Mar-23 16:22N 37°24' W 030°05'1620.1
2017-Mar-23 15:33N 37°31' W 029°47'1323.6
2017-Mar-23 15:00N 37°30' W 029°30'1023.5 1034.410.8 16.0 9.315.0
2017-Mar-23 14:33N 37°39' W 029°23'2020.3
2017-Mar-23 13:33N 37°47' W 028°60'2019.8
2017-Mar-23 12:33N 37°56' W 028°38'2020.0
2017-Mar-23 11:33N 38°05' W 028°15'2119.9
2017-Mar-23 10:32N 38°13' W 027°51'1919.7
2017-Mar-23 09:33N 38°21' W 027°28'2019.9
2017-Mar-23 08:33N 38°32' W 027°07'11 5.6
2017-Mar-23 06:32N 38°43' W 027°03'0 0.0
2017-Mar-23 04:33N 38°43' W 027°03'0 0.0
2017-Mar-23 01:28N 38°43' W 027°03'0 0.0
2017-Mar-22 22:31N 38°43' W 027°03'0 0.0
2017-Mar-22 21:31N 38°43' W 027°03'0 0.0
2017-Mar-22 20:25N 38°43' W 027°03'0 0.0
2017-Mar-22 19:25N 38°43' W 027°03'0 0.0
2017-Mar-22 17:28N 38°43' W 027°03'0 0.0
2017-Mar-22 16:31N 38°43' W 027°03'0 0.0
2017-Mar-22 15:28N 38°43' W 027°03'0 0.0
2017-Mar-22 10:22N 38°43' W 027°03'0 0.0
2017-Mar-22 09:32N 38°43' W 027°03'2210.3
2017-Mar-22 07:26N 38°54' W 026°39'  
2017-Mar-19 17:18N 48°34' W 007°25'1114.6
2017-Mar-19 16:32N 48°39' W 007°10'1815.2
2017-Mar-19 15:22N 48°48' W 006°47'2216.9
2017-Mar-19 14:05N 48°58' W 006°17'  

Dump ship's entire track history